Weather in Kalininskaya

Russia / Krasnodar Krai     45°29′08″N   38°39′42″E
temp.,
°C
wind,
m/s
gust,
m/s
humid.,
%
clouds,
%
prec.,
mm/h
press.,
hPa
HPBL,
m
11 april, sun
sun1100:00+6s2295100 1.8 1022147
03:00+6nne499483 4.2 1020412
06:00+7nne4892100 0.0 1020324
09:00+9ne698460 0.0 1020600
12:00+11ene5677100 0.0 1019899
15:00+11ene4578100 0.1 1019811
18:00+10ne4786100 0.1 1019499
21:00+9ne4889100 0.5 1019361
12 april, mon
mon1200:00+9ne2591100 0.1 1019169
03:00+9ssw3694100 0.2 1019254
06:00+9ssw3893100 0.0 1020357
09:00+9sw3690100 0.1 1021406
12:00+12sw2371100 0.0 1021855
15:00+14ssw1265100 0.1 10211006
18:00+12ssw2282100 0.1 102182
21:00+10wsw2288100 0.1 102213
13 april, tue
tue1300:00+9wsw3484100 0.0 1022104
03:00+9wsw3586100 0.1 1022217
06:00+8wsw2589100 0.2 1022243
09:00+8ssw1393100 0.6 1023138
12:00+10ssw1182100 0.1 1022372
15:00+13ese127197 0.1 1022859
18:00+12e1280100 0.1 1021116
21:00+11ene118396 0.1 102114
14 april, wed
wed1400:00+9ne2293100 0.0 102028
03:00+8ne2295100 0.0 101920
06:00+9w1193100 0.2 101914
09:00+9nne1192100 0.9 101992
12:00+10s018899 0.0 1018150
15:00+13ne217539 0.1 1018454
18:00+13ene227868 0.1 101897
21:00+10ene228898 0.1 101717
15 april, thu
thu1500:00+9e349265 0.0 101749
03:00+8e339484 0.0 101641
06:00+7ese339460 0.0 101655
09:00+13e45745 0.0 1015384
12:00+18ese3455100 0.0 10141035
15:00+11wsw6991100 1.9 1015298
18:00+13ssw13806 0.9 1015295
21:00+10ese22910 0.9 101517